^^
Saratoga-Weather Station Historical Data
Daily Summary for July 10, 2020 Units:  Metric    English   Both
Daily Weekly Monthly Yearly Custom
  High: Low: Average:
Temperature: 24.8 °C 16 °C 19.5 °C
Dew Point: 16.9 °C 12.6 °C 15.8 °C
Humidity: 94% 59% 80%
Wind Speed: 7.9km/h 0km/h 1.6km/h
Wind Gust: 12.9km/h - -
Wind- - SSE
Pressure: 1021.0 hPa 1016.3 hPa -
Precipitation: 2.3 mm    
Historical Graphs
 
 
Tabular Data for July 10, 2020
Time Temperature Dew Point Pressure Wind Wind Speed Wind Gust Humidity Rainfall Rate (Hourly) solar
00:02 20.3 °C 15.5 °C 1020.0 hPa West 3.2 km/h 6.4 km/h 74% 0.0 mm 0 W/m2
00:07 20.3 °C 15.5 °C 1020.0 hPa West 3.2 km/h 6.4 km/h 74% 0.0 mm 0 W/m2
00:12 20.3 °C 15.5 °C 1020.0 hPa WNW 4.7 km/h 6.4 km/h 74% 0.0 mm 0 W/m2
00:17 20.3 °C 15.5 °C 1020.0 hPa West 3.2 km/h 4.8 km/h 74% 0.0 mm 0 W/m2
00:22 20.3 °C 15.5 °C 1020.0 hPa West 4.7 km/h 4.8 km/h 74% 0.0 mm 0 W/m2
00:27 20.3 °C 15.5 °C 1020.0 hPa West 3.2 km/h 4.8 km/h 74% 0.0 mm 0 W/m2
00:32 20.3 °C 15.5 °C 1020.0 hPa WSW 1.4 km/h 4.8 km/h 74% 0.0 mm 0 W/m2
00:37 20.3 °C 15.5 °C 1019.6 hPa Calm   3.2 km/h 74% 0.0 mm 0 W/m2
00:42 20.3 °C 15.5 °C 1020.0 hPa WSW 4.8 km/h 4.8 km/h 74% 0.0 mm 0 W/m2
00:47 20.3 °C 15.5 °C 1020.0 hPa Calm     74% 0.0 mm 0 W/m2
00:52 20.2 °C 15.4 °C 1019.6 hPa Calm   1.6 km/h 74% 0.0 mm 0 W/m2
00:57 20.1 °C 15.5 °C 1019.6 hPa WSW 1.4 km/h 3.2 km/h 75% 0.0 mm 0 W/m2
01:02 19.8 °C 15.2 °C 1019.6 hPa Calm   1.6 km/h 75% 0.0 mm 0 W/m2
01:07 19.7 °C 15.3 °C 1019.6 hPa Calm   1.6 km/h 76% 0.0 mm 0 W/m2
01:12 19.5 °C 15.4 °C 1020.0 hPa Calm     77% 0.0 mm 0 W/m2
01:17 19.3 °C 15.4 °C 1020.0 hPa Calm     78% 0.0 mm 0 W/m2
01:22 19.2 °C 15.3 °C 1020.0 hPa Calm     78% 0.0 mm 0 W/m2
01:27 19.1 °C 15.4 °C 1020.0 hPa Calm     79% 0.0 mm 0 W/m2
01:32 18.9 °C 15.2 °C 1020.0 hPa Calm     79% 0.0 mm 0 W/m2
01:37 18.8 °C 15.3 °C 1020.0 hPa Calm     80% 0.0 mm 0 W/m2
01:42 18.7 °C 15.2 °C 1020.0 hPa Calm     80% 0.0 mm 0 W/m2
01:47 18.7 °C 15.4 °C 1020.0 hPa Calm     81% 0.0 mm 0 W/m2
01:52 18.6 °C 15.3 °C 1020.0 hPa Calm     81% 0.0 mm 0 W/m2
01:57 18.5 °C 15.2 °C 1020.3 hPa Calm     81% 0.0 mm 0 W/m2
02:02 18.5 °C 15.2 °C 1020.0 hPa Calm   1.6 km/h 81% 0.0 mm 0 W/m2
02:07 18.6 °C 15.3 °C 1020.0 hPa Calm     81% 0.0 mm 0 W/m2
02:12 18.7 °C 15.4 °C 1020.0 hPa Calm     81% 0.0 mm 0 W/m2
02:17 18.8 °C 15.5 °C 1020.0 hPa Calm     81% 0.0 mm 0 W/m2
02:22 18.8 °C 15.5 °C 1020.0 hPa Calm   3.2 km/h 81% 0.0 mm 0 W/m2
02:27 18.8 °C 15.5 °C 1020.0 hPa WSW 3.2 km/h 4.8 km/h 81% 0.0 mm 0 W/m2
02:32 19.1 °C 15.8 °C 1020.0 hPa Calm   3.2 km/h 81% 0.0 mm 0 W/m2
02:37 19.4 °C 15.9 °C 1020.0 hPa NW 1.4 km/h 4.8 km/h 80% 0.0 mm 0 W/m2
02:42 19.6 °C 15.9 °C 1020.0 hPa NW 4.7 km/h 9.7 km/h 79% 0.0 mm 0 W/m2
02:47 19.8 °C 16.1 °C 1020.0 hPa NNE 4.7 km/h 4.8 km/h 79% 0.0 mm 0 W/m2
02:52 19.9 °C 16.1 °C 1020.0 hPa West 1.4 km/h 8 km/h 79% 0.0 mm 0 W/m2
02:57 19.9 °C 16.1 °C 1020.0 hPa West 6.4 km/h 6.4 km/h 79% 0.0 mm 0 W/m2
03:02 19.9 °C 16.1 °C 1020.0 hPa West 3.2 km/h 4.8 km/h 79% 0.0 mm 0 W/m2
03:07 19.9 °C 16.1 °C 1020.0 hPa Calm   3.2 km/h 79% 0.0 mm 0 W/m2
03:12 19.9 °C 16.1 °C 1020.0 hPa Calm   3.2 km/h 79% 0.0 mm 0 W/m2
03:17 19.9 °C 16.1 °C 1020.0 hPa NNW 1.4 km/h 3.2 km/h 79% 0.0 mm 0 W/m2
03:22 19.8 °C 16.2 °C 1020.0 hPa Calm   4.8 km/h 80% 0.0 mm 0 W/m2
03:27 19.8 °C 16.2 °C 1020.0 hPa NW 3.2 km/h 6.4 km/h 80% 0.0 mm 0 W/m2
03:32 19.8 °C 16.2 °C 1020.0 hPa NW 4.7 km/h 9.7 km/h 80% 0.0 mm 0 W/m2
03:37 19.8 °C 16.2 °C 1020.0 hPa NW 3.2 km/h 6.4 km/h 80% 0.0 mm 0 W/m2
03:42 19.8 °C 16.2 °C 1020.0 hPa WNW 1.4 km/h 4.8 km/h 80% 0.0 mm 0 W/m2
03:47 19.8 °C 16.4 °C 1020.0 hPa WNW 3.2 km/h 4.8 km/h 81% 0.0 mm 0 W/m2
03:52 19.8 °C 16.4 °C 1020.0 hPa NW 1.4 km/h 4.8 km/h 81% 0.0 mm 0 W/m2
03:57 19.7 °C 16.3 °C 1020.0 hPa West 3.2 km/h 4.8 km/h 81% 0.0 mm 0 W/m2
04:03 19.6 °C 16.2 °C 1020.0 hPa West 1.4 km/h 3.2 km/h 81% 0.0 mm 0 W/m2
04:08 19.5 °C 16.2 °C 1020.0 hPa West 3.2 km/h 4.8 km/h 81% 0.0 mm 0 W/m2
04:13 19.4 °C 16.2 °C 1020.0 hPa West 3.2 km/h 9.7 km/h 82% 0.0 mm 0 W/m2
04:18 19.5 °C 16.3 °C 1020.0 hPa Calm   3.2 km/h 82% 0.0 mm 0 W/m2
04:23 19.6 °C 16.4 °C 1020.0 hPa NW 6.4 km/h 6.4 km/h 82% 0.0 mm 0 W/m2
04:28 19.6 °C 16.4 °C 1020.0 hPa WNW 1.4 km/h 3.2 km/h 82% 0.0 mm 0 W/m2
04:33 19.5 °C 16.3 °C 1019.6 hPa NNW 3.2 km/h 6.4 km/h 82% 0.0 mm 0 W/m2
04:38 19.4 °C 16.2 °C 1020.0 hPa West 4.7 km/h 4.8 km/h 82% 0.0 mm 0 W/m2
04:43 19.4 °C 16.4 °C 1020.0 hPa West 3.2 km/h 4.8 km/h 83% 0.0 mm 0 W/m2
04:48 19.4 °C 16.4 °C 1019.6 hPa North 3.2 km/h 6.4 km/h 83% 0.0 mm 0 W/m2
04:53 19.3 °C 16.3 °C 1019.6 hPa NW 3.2 km/h 8 km/h 83% 0.0 mm 0 W/m2
04:58 19.3 °C 16.5 °C 1019.6 hPa WNW 1.4 km/h 11.3 km/h 84% 0.0 mm 0 W/m2
05:04 19.3 °C 16.5 °C 1019.6 hPa Calm   6.4 km/h 84% 0.0 mm 0 W/m2
05:09 19.3 °C 16.5 °C 1019.6 hPa WNW 1.4 km/h 11.3 km/h 84% 0.0 mm 0 W/m2
05:14 19.3 °C 16.5 °C 1019.6 hPa Calm     84% 0.0 mm 0 W/m2
05:19 19.2 °C 16.4 °C 1019.3 hPa NW 1.4 km/h 6.4 km/h 84% 0.0 mm 0 W/m2
05:24 19.2 °C 16.4 °C 1019.6 hPa Calm   1.6 km/h 84% 0.0 mm 0 W/m2
05:29 19.1 °C 16.3 °C 1019.3 hPa Calm     84% 0.0 mm 0 W/m2
05:34 19.1 °C 16.5 °C 1019.3 hPa Calm     85% 0.0 mm 0 W/m2
05:39 18.9 °C 16.3 °C 1019.6 hPa Calm   1.6 km/h 85% 0.0 mm 0 W/m2
05:44 18.8 °C 16.2 °C 1019.6 hPa Calm     85% 0.0 mm 0 W/m2
05:49 18.8 °C 16.4 °C 1019.6 hPa ENE 1.4 km/h 1.6 km/h 86% 0.0 mm 0 W/m2
05:54 18.7 °C 16.3 °C 1019.6 hPa North 1.4 km/h 6.4 km/h 86% 0.0 mm 0 W/m2
05:59 18.7 °C 16.3 °C 1019.6 hPa Calm   3.2 km/h 86% 0.0 mm 0 W/m2
06:04 18.7 °C 16.3 °C 1019.6 hPa NNW 1.4 km/h 6.4 km/h 86% 0.0 mm 0 W/m2
06:09 18.6 °C 16.2 °C 1019.6 hPa Calm   4.8 km/h 86% 0.0 mm 0 W/m2
06:14 18.6 °C 16.2 °C 1019.6 hPa NNE 4.7 km/h 4.8 km/h 86% 0.0 mm 0 W/m2
06:20 18.5 °C 16.1 °C 1019.6 hPa Calm   3.2 km/h 86% 0.0 mm 0 W/m2
06:25 18.4 °C 16 °C 1019.6 hPa SSW 1.4 km/h 1.6 km/h 86% 0.0 mm 0 W/m2
06:30 18.4 °C 16 °C 1019.6 hPa NE 1.4 km/h 3.2 km/h 86% 0.0 mm 0 W/m2
06:35 18.4 °C 16 °C 1019.6 hPa Calm   3.2 km/h 86% 0.0 mm 0 W/m2
06:40 18.3 °C 15.9 °C 1019.6 hPa East 1.4 km/h 8 km/h 86% 0.0 mm 0 W/m2
06:45 18.3 °C 15.9 °C 1019.6 hPa WNW 1.4 km/h 3.2 km/h 86% 0.0 mm 0 W/m2
06:50 18.3 °C 16.1 °C 1019.6 hPa Calm   8 km/h 87% 0.0 mm 0 W/m2
06:55 18.3 °C 16.1 °C 1019.6 hPa North 1.4 km/h 6.4 km/h 87% 0.0 mm 0 W/m2
07:00 18.2 °C 16 °C 1019.6 hPa SSE 3.2 km/h 3.2 km/h 87% 0.0 mm 0 W/m2
07:05 18.2 °C 16 °C 1019.6 hPa Calm   6.4 km/h 87% 0.0 mm 0 W/m2
07:10 18.2 °C 16 °C 1019.6 hPa WNW 3.2 km/h 8 km/h 87% 0.0 mm 0 W/m2
07:15 18.2 °C 16 °C 1019.6 hPa SSW 6.4 km/h 6.4 km/h 87% 0.0 mm 0 W/m2
07:20 18.1 °C 15.9 °C 1019.6 hPa NE 1.4 km/h 3.2 km/h 87% 0.0 mm 0 W/m2
07:25 18.1 °C 15.9 °C 1019.6 hPa NE 3.2 km/h 6.4 km/h 87% 0.0 mm 0 W/m2
07:30 18.1 °C 15.7 °C 1020.0 hPa East 1.4 km/h 9.7 km/h 86% 0.0 mm 0 W/m2
07:35 18.1 °C 15.7 °C 1020.0 hPa Calm   3.2 km/h 86% 0.0 mm 0 W/m2
07:40 18 °C 15.6 °C 1019.6 hPa ENE 3.2 km/h 9.7 km/h 86% 0.0 mm 0 W/m2
07:45 18 °C 15.6 °C 1020.0 hPa East 1.4 km/h 3.2 km/h 86% 0.0 mm 5 W/m2
07:50 17.9 °C 15.7 °C 1020.0 hPa ENE 3.2 km/h 6.4 km/h 87% 0.0 mm 5 W/m2
07:55 17.9 °C 15.7 °C 1020.0 hPa NW 1.4 km/h 3.2 km/h 87% 0.0 mm 5 W/m2
08:00 17.8 °C 15.6 °C 1020.0 hPa North 1.4 km/h 4.8 km/h 87% 0.0 mm 5 W/m2
08:05 17.8 °C 15.4 °C 1020.0 hPa Calm   1.6 km/h 86% 0.0 mm 5 W/m2
08:10 17.7 °C 15.5 °C 1020.0 hPa NW 3.2 km/h 4.8 km/h 87% 0.0 mm 0 W/m2
08:15 17.6 °C 15.4 °C 1020.3 hPa Calm   3.2 km/h 87% 0.0 mm 5 W/m2
08:20 17.5 °C 15.3 °C 1020.3 hPa West 3.2 km/h 6.4 km/h 87% 0.0 mm 7 W/m2
08:25 17.4 °C 15.4 °C 1020.3 hPa Calm   8 km/h 88% 0.2 mm 5 W/m2
08:30 17.2 °C 15.4 °C 1020.3 hPa NE 1.4 km/h 4.8 km/h 89% 0.5 mm 5 W/m2
08:35 17 °C 15.2 °C 1020.3 hPa North 1.4 km/h 8 km/h 89% 0.5 mm 7 W/m2
08:40 16.9 °C 15.2 °C 1020.7 hPa ESE 1.4 km/h 6.4 km/h 90% 0.5 mm 11 W/m2
08:45 16.7 °C 15.2 °C 1020.7 hPa ENE 1.4 km/h 6.4 km/h 91% 0.5 mm 14 W/m2
08:50 16.6 °C 15.1 °C 1020.7 hPa North 1.4 km/h 4.8 km/h 91% 0.5 mm 19 W/m2
08:55 16.5 °C 15 °C 1020.7 hPa Calm   3.2 km/h 91% 0.8 mm 19 W/m2
09:00 16.4 °C 15.1 °C 1020.7 hPa Calm   1.6 km/h 92% 0.8 mm 19 W/m2
09:05 16.4 °C 15.1 °C 1020.7 hPa ESE 1.4 km/h 3.2 km/h 92% 1.0 mm 16 W/m2
09:10 16.3 °C 15 °C 1020.7 hPa Calm   4.8 km/h 92% 1.3 mm 18 W/m2
09:15 16.2 °C 14.9 °C 1020.7 hPa North 1.4 km/h 4.8 km/h 92% 1.5 mm 19 W/m2
09:20 16.2 °C 15.1 °C 1020.7 hPa Calm   1.6 km/h 93% 1.5 mm 23 W/m2
09:25 16.1 °C 15 °C 1021.0 hPa Calm   1.6 km/h 93% 1.5 mm 23 W/m2
09:31 16.1 °C 15 °C 1021.0 hPa WNW 1.4 km/h 3.2 km/h 93% 1.3 mm 23 W/m2
09:36 16.1 °C 15 °C 1021.0 hPa NNE 3.2 km/h 3.2 km/h 93% 1.5 mm 26 W/m2
09:41 16.1 °C 15 °C 1021.0 hPa NNW 1.4 km/h 1.6 km/h 93% 1.3 mm 30 W/m2
09:46 16 °C 14.9 °C 1021.0 hPa West 4.7 km/h 4.8 km/h 93% 1.5 mm 30 W/m2
09:51 16 °C 14.9 °C 1021.0 hPa West 1.4 km/h 3.2 km/h 93% 1.5 mm 32 W/m2
09:56 16.1 °C 15.1 °C 1021.0 hPa West 1.4 km/h 1.6 km/h 94% 1.3 mm 39 W/m2
10:01 16.1 °C 15.1 °C 1021.0 hPa Calm   1.6 km/h 94% 1.3 mm 63 W/m2
10:06 16.1 °C 15.1 °C 1021.0 hPa NE 3.2 km/h 4.8 km/h 94% 1.0 mm 84 W/m2
10:11 16.1 °C 15.1 °C 1021.0 hPa East 1.4 km/h 3.2 km/h 94% 0.8 mm 90 W/m2
10:16 16.2 °C 15.2 °C 1021.0 hPa Calm   3.2 km/h 94% 0.5 mm 88 W/m2
10:21 16.2 °C 15.2 °C 1021.0 hPa ENE 1.4 km/h 3.2 km/h 94% 0.5 mm 100 W/m2
10:26 16.3 °C 15.3 °C 1021.0 hPa East 1.4 km/h 3.2 km/h 94% 0.5 mm 113 W/m2
10:31 16.4 °C 15.4 °C 1021.0 hPa Calm     94% 0.5 mm 128 W/m2
10:36 16.5 °C 15.5 °C 1021.0 hPa Calm   3.2 km/h 94% 0.2 mm 123 W/m2
10:41 16.7 °C 15.7 °C 1021.0 hPa Calm   1.6 km/h 94% 0.2 mm 114 W/m2
10:46 16.8 °C 15.8 °C 1021.0 hPa East 3.2 km/h 3.2 km/h 94% 0.0 mm 120 W/m2
10:51 16.9 °C 15.9 °C 1020.7 hPa ESE 1.4 km/h 4.8 km/h 94% 0.2 mm 116 W/m2
10:56 17 °C 16 °C 1021.0 hPa East 1.4 km/h 3.2 km/h 94% 0.2 mm 137 W/m2
11:01 17.1 °C 16 °C 1020.7 hPa East 4.7 km/h 4.8 km/h 93% 0.2 mm 163 W/m2
11:06 17.2 °C 16.1 °C 1020.7 hPa ENE 1.4 km/h 3.2 km/h 93% 0.2 mm 169 W/m2
11:11 17.3 °C 16.2 °C 1020.7 hPa ESE 1.4 km/h 3.2 km/h 93% 0.2 mm 155 W/m2
11:16 17.4 °C 16.3 °C 1020.7 hPa NE 3.2 km/h 4.8 km/h 93% 0.2 mm 190 W/m2
11:21 17.6 °C 16.5 °C 1020.7 hPa East 1.4 km/h 4.8 km/h 93% 0.2 mm 232 W/m2
11:26 17.7 °C 16.4 °C 1020.7 hPa ENE 4.7 km/h 6.4 km/h 92% 0.2 mm 206 W/m2
11:35 17.8 °C 16.3 °C 1021.0 hPa SE 3.2 km/h 4.8 km/h 91% 0.2 mm 253 W/m2
11:41 17.8 °C 16.1 °C 1021.0 hPa NE 1.4 km/h 6.4 km/h 90% 0.2 mm 287 W/m2
11:46 18 °C 16.3 °C 1020.7 hPa ENE 4.7 km/h 6.4 km/h 90% 0.2 mm 388 W/m2
11:51 18.1 °C 16.4 °C 1020.7 hPa East 3.2 km/h 6.4 km/h 90% 0.0 mm 295 W/m2
11:56 18.3 °C 16.5 °C 1020.7 hPa ESE 3.2 km/h 6.4 km/h 89% 0.0 mm 431 W/m2
12:01 18.4 °C 16.4 °C 1020.7 hPa East 3.2 km/h 6.4 km/h 88% 0.0 mm 325 W/m2
12:06 18.7 °C 16.7 °C 1020.7 hPa Calm   3.2 km/h 88% 0.0 mm 464 W/m2
12:11 19 °C 16.8 °C 1020.7 hPa NNE 4.7 km/h 9.7 km/h 87% 0.0 mm 780 W/m2
12:16 19.2 °C 16.8 °C 1020.7 hPa ESE 1.4 km/h 4.8 km/h 86% 0.0 mm 243 W/m2
12:21 19.2 °C 16.8 °C 1020.7 hPa ENE 1.4 km/h 9.7 km/h 86% 0.0 mm 285 W/m2
12:26 19.1 °C 16.5 °C 1020.7 hPa NE 7.9 km/h 11.3 km/h 85% 0.0 mm 186 W/m2
12:31 18.8 °C 16 °C 1020.3 hPa ENE 1.4 km/h 4.8 km/h 84% 0.0 mm 142 W/m2
12:36 18.6 °C 16 °C 1020.3 hPa ENE 1.4 km/h 8 km/h 85% 0.0 mm 202 W/m2
12:41 18.6 °C 16.2 °C 1020.3 hPa NNW 6.4 km/h 6.4 km/h 86% 0.0 mm 151 W/m2
12:46 18.6 °C 16.2 °C 1020.3 hPa NE 1.4 km/h 8 km/h 86% 0.0 mm 130 W/m2
12:51 18.6 °C 16.2 °C 1020.3 hPa East 1.4 km/h 4.8 km/h 86% 0.0 mm 148 W/m2
12:56 18.6 °C 16.2 °C 1020.3 hPa East 6.4 km/h 6.4 km/h 86% 0.0 mm 153 W/m2
13:06 18.9 °C 16.5 °C 1020.3 hPa ESE 1.4 km/h 1.6 km/h 86% 0.0 mm 524 W/m2
13:12 19.2 °C 16.4 °C 1020.3 hPa ESE 4.7 km/h 6.4 km/h 84% 0.0 mm 346 W/m2
13:17 19.3 °C 16.3 °C 1020.0 hPa East 1.4 km/h 6.4 km/h 83% 0.0 mm 294 W/m2
13:22 19.5 °C 16.5 °C 1020.0 hPa Calm   1.6 km/h 83% 0.0 mm 320 W/m2
13:27 19.6 °C 16.4 °C 1020.0 hPa NE 3.2 km/h 6.4 km/h 82% 0.0 mm 308 W/m2
13:32 19.8 °C 16.6 °C 1020.0 hPa ENE 3.2 km/h 6.4 km/h 82% 0.0 mm 348 W/m2
13:37 19.9 °C 16.5 °C 1019.6 hPa ENE 4.7 km/h 4.8 km/h 81% 0.0 mm 378 W/m2
13:41 20.1 °C 16.5 °C 1020.0 hPa ENE 4.7 km/h 3.2 km/h 80% 0.0 mm 334 W/m2
13:46 20.2 °C 16.4 °C 1019.6 hPa East 1.4 km/h 4.8 km/h 79% 0.0 mm 313 W/m2
13:52 20.2 °C 16.6 °C 1019.6 hPa NE 3.2 km/h 3.2 km/h 80% 0.0 mm 462 W/m2
13:57 20.2 °C 16.6 °C 1019.6 hPa Calm   4.8 km/h 80% 0.0 mm 316 W/m2
14:02 20.3 °C 16.9 °C 1019.6 hPa Calm   4.8 km/h 81% 0.0 mm 355 W/m2
14:07 20.4 °C 16.6 °C 1019.6 hPa North 6.4 km/h 8 km/h 79% 0.0 mm 371 W/m2
14:12 20.5 °C 16.5 °C 1019.6 hPa ESE 1.4 km/h 6.4 km/h 78% 0.0 mm 366 W/m2
14:17 20.5 °C 16.9 °C 1019.3 hPa Calm   4.8 km/h 80% 0.0 mm 387 W/m2
14:21 20.7 °C 16.9 °C 1019.3 hPa ESE 4.7 km/h 9.7 km/h 79% 0.0 mm 390 W/m2
14:27 20.8 °C 16.6 °C 1019.3 hPa NE 6.4 km/h 12.9 km/h 77% 0.0 mm 450 W/m2
14:32 20.8 °C 16.8 °C 1019.3 hPa Calm   1.6 km/h 78% 0.0 mm 355 W/m2
14:37 20.8 °C 16.8 °C 1019.3 hPa NNE 1.4 km/h 4.8 km/h 78% 0.0 mm 404 W/m2
14:42 21 °C 16.6 °C 1019.3 hPa ENE 1.4 km/h 4.8 km/h 76% 0.0 mm 352 W/m2
14:47 21.1 °C 16.7 °C 1019.3 hPa ESE 1.4 km/h 3.2 km/h 76% 0.0 mm 462 W/m2
14:52 21.3 °C 16.5 °C 1019.3 hPa East 1.4 km/h 3.2 km/h 74% 0.0 mm 531 W/m2
14:57 21.4 °C 16.6 °C 1019.0 hPa NE 4.7 km/h 4.8 km/h 74% 0.0 mm 687 W/m2
15:02 21.6 °C 16.3 °C 1019.0 hPa Calm   9.7 km/h 72% 0.0 mm 691 W/m2
15:07 21.8 °C 16.3 °C 1019.0 hPa Calm   4.8 km/h 71% 0.0 mm 661 W/m2
15:12 22 °C 16.3 °C 1019.0 hPa SSW 3.2 km/h 3.2 km/h 70% 0.0 mm 657 W/m2
15:17 22.2 °C 16.7 °C 1019.0 hPa NW 3.2 km/h 4.8 km/h 71% 0.0 mm 666 W/m2
15:22 22.4 °C 16.7 °C 1019.0 hPa NE 4.7 km/h 6.4 km/h 70% 0.0 mm 638 W/m2
15:27 22.3 °C 16.3 °C 1019.0 hPa WNW 1.4 km/h 3.2 km/h 69% 0.0 mm 629 W/m2
15:32 22.6 °C 16.4 °C 1018.6 hPa ESE 4.7 km/h 4.8 km/h 68% 0.0 mm 557 W/m2
15:37 22.8 °C 16.4 °C 1018.6 hPa East 7.9 km/h 8 km/h 67% 0.0 mm 605 W/m2
15:42 22.9 °C 16.4 °C 1018.6 hPa SE 6.4 km/h 6.4 km/h 67% 0.0 mm 624 W/m2
15:47 23 °C 16.1 °C 1018.6 hPa Calm   1.6 km/h 65% 0.0 mm 622 W/m2
15:52 23.1 °C 16.4 °C 1018.6 hPa ESE 3.2 km/h 4.8 km/h 66% 0.0 mm 622 W/m2
15:57 23.2 °C 16.3 °C 1018.3 hPa WSW 3.2 km/h 3.2 km/h 65% 0.0 mm 592 W/m2
16:02 23.3 °C 16.3 °C 1018.3 hPa East 4.7 km/h 4.8 km/h 65% 0.0 mm 506 W/m2
16:07 23.6 °C 16.6 °C 1018.3 hPa Calm   4.8 km/h 65% 0.0 mm 591 W/m2
16:12 23.7 °C 16.2 °C 1018.3 hPa West 1.4 km/h 3.2 km/h 63% 0.0 mm 575 W/m2
16:17 23.9 °C 16.7 °C 1018.3 hPa ENE 6.4 km/h 6.4 km/h 64% 0.0 mm 531 W/m2
16:22 23.9 °C 16.2 °C 1018.0 hPa East 3.2 km/h 4.8 km/h 62% 0.0 mm 499 W/m2
16:27 23.7 °C 16 °C 1018.0 hPa ESE 4.7 km/h 4.8 km/h 62% 0.0 mm 512 W/m2
16:32 23.7 °C 16.2 °C 1018.0 hPa ESE 1.4 km/h 6.4 km/h 63% 0.0 mm 489 W/m2
16:37 23.8 °C 16.1 °C 1018.0 hPa Calm   6.4 km/h 62% 0.0 mm 202 W/m2
16:43 24 °C 16.5 °C 1018.0 hPa East 6.4 km/h 6.4 km/h 63% 0.0 mm 573 W/m2
16:48 23.9 °C 16.2 °C 1017.6 hPa East 3.2 km/h 9.7 km/h 62% 0.0 mm 513 W/m2
16:53 23.8 °C 16.3 °C 1017.6 hPa West 1.4 km/h 3.2 km/h 63% 0.0 mm 139 W/m2
16:58 23.8 °C 16.3 °C 1017.6 hPa ESE 4.7 km/h 9.7 km/h 63% 0.0 mm 520 W/m2
17:03 23.8 °C 16.1 °C 1017.6 hPa Calm   4.8 km/h 62% 0.0 mm 490 W/m2
17:08 24.1 °C 16.4 °C 1017.6 hPa ESE 6.4 km/h 6.4 km/h 62% 0.0 mm 506 W/m2
17:13 24.3 °C 16.3 °C 1017.3 hPa Calm   1.6 km/h 61% 0.0 mm 471 W/m2
17:18 24.6 °C 16.6 °C 1017.3 hPa Calm   4.8 km/h 61% 0.0 mm 457 W/m2
17:23 24.3 °C 15.8 °C 1017.3 hPa NE 1.4 km/h 9.7 km/h 59% 0.0 mm 443 W/m2
17:28 24.2 °C 15.9 °C 1017.3 hPa East 3.2 km/h 4.8 km/h 60% 0.0 mm 404 W/m2
17:33 24.2 °C 15.9 °C 1016.9 hPa ESE 1.4 km/h 9.7 km/h 60% 0.0 mm 373 W/m2
17:38 24.4 °C 16.1 °C 1016.9 hPa Calm   1.6 km/h 60% 0.0 mm 369 W/m2
17:43 24.7 °C 16.7 °C 1016.9 hPa SE 3.2 km/h 4.8 km/h 61% 0.0 mm 348 W/m2
17:48 24.8 °C 16.5 °C 1016.9 hPa ESE 4.7 km/h 6.4 km/h 60% 0.0 mm 339 W/m2
17:53 24.7 °C 16.7 °C 1016.9 hPa ENE 3.2 km/h 3.2 km/h 61% 0.0 mm 325 W/m2
17:59 24.6 °C 16.6 °C 1016.9 hPa Calm   6.4 km/h 61% 0.0 mm 313 W/m2
18:04 24.4 °C 16.6 °C 1016.9 hPa ENE 1.4 km/h 4.8 km/h 62% 0.0 mm 295 W/m2
18:09 24.3 °C 16.3 °C 1016.9 hPa ESE 1.4 km/h 3.2 km/h 61% 0.0 mm 253 W/m2
18:14 24.3 °C 16.3 °C 1016.9 hPa Calm   4.8 km/h 61% 0.0 mm 206 W/m2
18:19 24.3 °C 16.3 °C 1016.9 hPa ENE 3.2 km/h 3.2 km/h 61% 0.0 mm 269 W/m2
18:24 24.4 °C 16.4 °C 1016.9 hPa Calm   4.8 km/h 61% 0.0 mm 232 W/m2
18:29 24.3 °C 16.6 °C 1016.6 hPa Calm   3.2 km/h 62% 0.0 mm 84 W/m2
18:34 24.1 °C 16.6 °C 1016.6 hPa Calm     63% 0.0 mm 221 W/m2
18:39 23.9 °C 16.4 °C 1016.6 hPa SSE 1.4 km/h 3.2 km/h 63% 0.0 mm 202 W/m2
18:44 23.8 °C 16.6 °C 1016.6 hPa Calm     64% 0.0 mm 149 W/m2
18:49 23.7 °C 16.7 °C 1016.6 hPa Calm   1.6 km/h 65% 0.0 mm 98 W/m2
18:54 23.6 °C 16.1 °C 1016.6 hPa SW 1.4 km/h 3.2 km/h 63% 0.0 mm 144 W/m2
18:59 23.4 °C 16.2 °C 1016.6 hPa Calm   1.6 km/h 64% 0.0 mm 72 W/m2
19:04 23.2 °C 16.3 °C 1016.6 hPa Calm   4.8 km/h 65% 0.0 mm 63 W/m2
19:09 22.9 °C 16.4 °C 1016.6 hPa Calm     67% 0.0 mm 54 W/m2
19:14 22.8 °C 16.6 °C 1016.3 hPa Calm   4.8 km/h 68% 0.0 mm 42 W/m2
19:19 22.5 °C 16.5 °C 1016.3 hPa Calm     69% 0.0 mm 32 W/m2
19:24 22.2 °C 16.2 °C 1016.3 hPa Calm   1.6 km/h 69% 0.0 mm 26 W/m2
19:29 21.9 °C 16.4 °C 1016.3 hPa Calm     71% 0.0 mm 23 W/m2
19:34 21.7 °C 16.2 °C 1016.3 hPa Calm     71% 0.0 mm 21 W/m2
19:39 21.3 °C 16 °C 1016.3 hPa Calm     72% 0.0 mm 16 W/m2
19:45 21.1 °C 16.1 °C 1016.3 hPa Calm     73% 0.0 mm 12 W/m2
19:50 20.8 °C 16 °C 1016.3 hPa Calm     74% 0.0 mm 7 W/m2
19:55 20.6 °C 16 °C 1016.3 hPa Calm     75% 0.0 mm 5 W/m2
20:00 20.3 °C 15.9 °C 1016.6 hPa Calm     76% 0.0 mm 0 W/m2
20:05 20.1 °C 15.9 °C 1016.6 hPa Calm     77% 0.0 mm 0 W/m2
20:10 19.9 °C 15.9 °C 1016.6 hPa Calm     78% 0.0 mm 0 W/m2
20:15 19.7 °C 15.8 °C 1016.6 hPa Calm     78% 0.0 mm 0 W/m2
20:20 19.6 °C 15.9 °C 1016.6 hPa Calm     79% 0.0 mm 0 W/m2
20:25 19.4 °C 15.9 °C 1016.6 hPa Calm     80% 0.0 mm 0 W/m2
20:30 19.3 °C 15.8 °C 1016.6 hPa Calm     80% 0.0 mm 0 W/m2
20:35 19.1 °C 15.6 °C 1016.6 hPa Calm     80% 0.0 mm 0 W/m2
20:40 19 °C 15.7 °C 1016.6 hPa Calm     81% 0.0 mm 0 W/m2
20:45 18.9 °C 15.6 °C 1016.6 hPa Calm     81% 0.0 mm 0 W/m2
20:50 18.8 °C 15.5 °C 1016.6 hPa Calm     81% 0.0 mm 0 W/m2
20:55 18.6 °C 15.5 °C 1016.6 hPa Calm     82% 0.0 mm 0 W/m2
21:00 18.5 °C 15.4 °C 1016.6 hPa Calm     82% 0.0 mm 0 W/m2
21:05 18.3 °C 15.4 °C 1016.6 hPa Calm     83% 0.0 mm 0 W/m2
21:10 18.2 °C 15.3 °C 1016.6 hPa Calm     83% 0.0 mm 0 W/m2
21:15 18 °C 15.1 °C 1016.9 hPa Calm     83% 0.0 mm 0 W/m2
21:20 17.8 °C 14.9 °C 1016.9 hPa Calm     83% 0.0 mm 0 W/m2
21:25 17.7 °C 15 °C 1016.9 hPa Calm     84% 0.0 mm 0 W/m2
21:30 17.6 °C 14.9 °C 1016.9 hPa Calm     84% 0.0 mm 0 W/m2
21:35 17.4 °C 14.9 °C 1016.9 hPa Calm     85% 0.0 mm 0 W/m2
21:40 17.2 °C 14.7 °C 1016.9 hPa Calm     85% 0.0 mm 0 W/m2
21:45 17.1 °C 14.7 °C 1016.9 hPa Calm     86% 0.0 mm 0 W/m2
21:50 17 °C 14.8 °C 1016.9 hPa Calm     87% 0.0 mm 0 W/m2
21:55 16.9 °C 14.7 °C 1016.9 hPa Calm     87% 0.0 mm 0 W/m2
22:00 16.8 °C 14.6 °C 1016.9 hPa Calm     87% 0.0 mm 0 W/m2
22:05 16.8 °C 14.8 °C 1016.9 hPa Calm     88% 0.0 mm 0 W/m2
22:10 16.7 °C 14.7 °C 1016.9 hPa Calm     88% 0.0 mm 0 W/m2
22:16 16.6 °C 14.6 °C 1017.3 hPa Calm     88% 0.0 mm 0 W/m2
22:21 16.5 °C 14.7 °C 1017.3 hPa Calm     89% 0.0 mm 0 W/m2
22:26 16.4 °C 14.6 °C 1017.3 hPa Calm     89% 0.0 mm 0 W/m2
22:31 16.4 °C 14.6 °C 1017.3 hPa Calm     89% 0.0 mm 0 W/m2
22:36 16.4 °C 14.6 °C 1017.3 hPa Calm   1.6 km/h 89% 0.0 mm 0 W/m2
22:41 16.4 °C 14.8 °C 1017.3 hPa Calm   3.2 km/h 90% 0.0 mm 0 W/m2
22:46 16.6 °C 15 °C 1017.3 hPa East 1.4 km/h 3.2 km/h 90% 0.0 mm 0 W/m2
22:51 16.6 °C 15 °C 1017.3 hPa Calm     90% 0.0 mm 0 W/m2
22:56 16.7 °C 14.7 °C 1017.3 hPa West 3.2 km/h 4.8 km/h 88% 0.0 mm 0 W/m2
23:01 16.8 °C 14.4 °C 1017.6 hPa Calm     86% 0.0 mm 0 W/m2
23:06 16.8 °C 14.3 °C 1017.6 hPa NW 1.4 km/h 4.8 km/h 85% 0.0 mm 0 W/m2
23:11 16.8 °C 14.3 °C 1017.6 hPa NW 1.4 km/h 1.6 km/h 85% 0.0 mm 0 W/m2
23:16 16.7 °C 13.8 °C 1017.6 hPa West 1.4 km/h 1.6 km/h 83% 0.0 mm 0 W/m2
23:21 16.6 °C 13.5 °C 1017.6 hPa Calm     82% 0.0 mm 0 W/m2
23:26 16.5 °C 13.2 °C 1017.3 hPa West 3.2 km/h 3.2 km/h 81% 0.0 mm 0 W/m2
23:32 16.4 °C 12.9 °C 1017.3 hPa Calm   3.2 km/h 80% 0.0 mm 0 W/m2
23:37 16.4 °C 12.7 °C 1017.3 hPa Calm   1.6 km/h 79% 0.0 mm 0 W/m2
23:42 16.5 °C 12.8 °C 1017.3 hPa South 1.4 km/h 3.2 km/h 79% 0.0 mm 0 W/m2
23:47 16.4 °C 12.7 °C 1017.3 hPa Calm   3.2 km/h 79% 0.0 mm 0 W/m2
23:52 16.3 °C 12.7 °C 1017.3 hPa Calm   3.2 km/h 79% 0.0 mm 0 W/m2
23:57 16.2 °C 12.6 °C 1017.3 hPa Calm     79% 0.0 mm 0 W/m2
Juneau County Weather
Compliments of Weather Underground - 4 mb